Overview Statistics Trail Chart Weather Telemetry Raw packets
 

This is the latest recevied weather packets stored in our database for station/object DL4SAV. If no packets are shown the sender has not sent any weather packets the latest 10 day(s).

<< 21 22 23 24 25 26 27 >>
Time Temp. Humidity Pressure Rain* Wind** Luminosity Snow
1788453992 23.89° C 44% 1020.7 hPa 0 mm - - -
1788453692 24.44° C 44% 1020.7 hPa 0 mm - - -
1788453409 24.44° C 43% 1020.9 hPa 0 mm - - -
1788453092 25° C 42% 1020.9 hPa 0 mm - - -
1788452791 25.56° C 43% 1020.7 hPa 0 mm - - -
1788452491 25.56° C 42% 1020.8 hPa 0 mm - - -
1788452191 25.56° C 43% 1020.7 hPa 0 mm - - -
1788451890 25° C 44% 1020.6 hPa 0 mm - - -
1788451590 25° C 46% 1020.6 hPa 0 mm - - -
1788451290 24.44° C 46% 1020.6 hPa 0 mm - - -
1788450990 24.44° C 46% 1020.7 hPa 0 mm - - -
1788450689 24.44° C 47% 1020.8 hPa 0 mm - - -
1788450389 23.89° C 47% 1020.9 hPa 0 mm - - -
1788450089 23.89° C 47% 1020.9 hPa 0 mm - - -
1788449788 23.33° C 47% 1020.8 hPa 0 mm - - -
1788449488 22.78° C 47% 1020.8 hPa 0 mm - - -
1788449188 22.78° C 47% 1020.8 hPa 0 mm - - -
1788448888 22.78° C 47% 1020.8 hPa 0 mm - - -
1788448587 22.78° C 46% 1020.9 hPa 0 mm - - -
1788448287 23.33° C 47% 1020.9 hPa 0 mm - - -
1788447987 23.33° C 47% 1020.9 hPa 0 mm - - -
1788447686 23.33° C 46% 1020.8 hPa 0 mm - - -
1788447386 23.33° C 47% 1020.9 hPa 0 mm - - -
1788447086 23.33° C 47% 1020.9 hPa 0 mm - - -
1788446786 23.33° C 46% 1020.9 hPa 0 mm - - -

* Rain latest hour (hover to see other rain measurements)
** Current wind speed in m/s (hover to see current wind gust speed)